Tracking 19709 objects as of 20-Jun-2019
HD Live streaming from Space Station
objects crossing your sky now

MORELOS 1 R/B(PAM-D)

Track MORELOS 1 R/B(PAM-D) now!


NORAD ID: 15832
Int'l Code: 1985-048F
Perigee: 394.8 km
Apogee: 34,405.9 km
Inclination: 25.6 °
Period: 607.9 minutes
Semi major axis: 23771 km
RCS: 2.6667 m2 (large)
Launch date: June 17, 1985
Source: United States (US)
Launch site: AIR FORCE EASTERN TEST RANGE (AFETR)

Note: This is a ROCKET BODY
aabbcc
Your satellite tracking list
Your tracking list is empty




NASA's NSSDC Master Catalog

Two Line Element Set (TLE):
1 15832U 85048F   19169.36008037 -.00000116 +00000-0 +13294-3 0  9998
2 15832 025.6099 299.0706 7153815 326.3469 004.0505 02.36877302235156
Source of the keplerian elements: AFSPC